ASA67 PASI-PAJN

Flight info

Callsign ASA67
Flight time 0h 21m
Altitude 15000
Route HAWRD5 TNAKY
Aircraft B738/M-SDE2E3FGHIRWXY/LB1

Departure

Time 2026-04-21 23:57
Airport Sitka Rocky Gutierrez Airport (PASI)

Arrival

Time 2026-04-22 00:19
Airport Juneau International Airport (PAJN)
Time Latitude Longitude Altitude Speed Heading
2026-04-21 23:39 57.05338 -135.36826 34 ft 0 kts 134°
2026-04-21 23:52 57.05326 -135.36813 34 ft 0 kts 152°
2026-04-21 23:52 57.05274 -135.36847 34 ft 18 kts 215°
2026-04-21 23:52 57.05208 -135.36813 33 ft 15 kts 147°
2026-04-21 23:52 57.05139 -135.36680 34 ft 15 kts 133°
2026-04-21 23:53 57.05069 -135.36551 33 ft 14 kts 135°
2026-04-21 23:53 57.05002 -135.36426 33 ft 14 kts 128°
2026-04-21 23:53 57.04952 -135.36331 34 ft 7 kts 144°
2026-04-21 23:53 57.04937 -135.36317 34 ft 1 kts 157°
2026-04-21 23:54 57.04868 -135.36305 34 ft 13 kts 185°
2026-04-21 23:54 57.04800 -135.36298 36 ft 24 kts 163°
2026-04-21 23:54 57.04672 -135.36093 36 ft 25 kts 135°
2026-04-21 23:54 57.04550 -135.35878 35 ft 23 kts 136°
2026-04-21 23:55 57.04435 -135.35677 34 ft 23 kts 134°
2026-04-21 23:55 57.04352 -135.35515 34 ft 17 kts 135°
2026-04-21 23:55 57.04257 -135.35344 36 ft 13 kts 136°
2026-04-21 23:55 57.04169 -135.35174 36 ft 26 kts 135°
2026-04-21 23:56 57.04062 -135.34960 34 ft 10 kts 113°
2026-04-21 23:56 57.04026 -135.34938 34 ft 0 kts 268°
2026-04-21 23:56 57.04029 -135.34940 33 ft 0 kts 314°
2026-04-21 23:56 57.04035 -135.34950 35 ft 0 kts 318°
2026-04-21 23:57 57.04109 -135.35076 35 ft 53 kts 315°
2026-04-21 23:57 57.04602 -135.35972 36 ft 142 kts 315°
2026-04-21 23:57 57.05427 -135.37373 657 ft 168 kts 315°
2026-04-21 23:57 57.06252 -135.38811 1825 ft 159 kts 314°
2026-04-21 23:58 57.07024 -135.40464 2766 ft 185 kts 307°
2026-04-21 23:58 57.07891 -135.42437 3285 ft 213 kts 306°
2026-04-21 23:58 57.08857 -135.44616 4038 ft 225 kts 307°
2026-04-21 23:58 57.09903 -135.46951 4690 ft 243 kts 309°
2026-04-21 23:59 57.11150 -135.49091 5851 ft 248 kts 318°
2026-04-21 23:59 57.12504 -135.51094 7057 ft 251 kts 318°
2026-04-21 23:59 57.13926 -135.52933 8339 ft 252 kts 332°
2026-04-21 23:59 57.15636 -135.53662 9695 ft 256 kts 352°
2026-04-22 00:00 57.17438 -135.53186 10726 ft 273 kts
2026-04-22 00:00 57.19372 -135.52193 11087 ft 305 kts
2026-04-22 00:00 57.21515 -135.51048 11342 ft 336 kts
2026-04-22 00:00 57.23792 -135.49831 11908 ft 351 kts
2026-04-22 00:01 57.26160 -135.48557 12841 ft 357 kts
2026-04-22 00:01 57.28591 -135.47264 13881 ft 361 kts
2026-04-22 00:01 57.30995 -135.45999 14623 ft 366 kts
2026-04-22 00:01 57.33486 -135.44687 14960 ft 368 kts
2026-04-22 00:02 57.35964 -135.43389 15000 ft 384 kts
2026-04-22 00:02 57.38552 -135.42024 14999 ft 388 kts
2026-04-22 00:02 57.41149 -135.40647 14991 ft 389 kts
2026-04-22 00:02 57.43754 -135.39265 14986 ft 390 kts
2026-04-22 00:03 57.46361 -135.37881 14985 ft 390 kts
2026-04-22 00:03 57.48971 -135.36493 14986 ft 390 kts
2026-04-22 00:03 57.51577 -135.35105 15007 ft 390 kts
2026-04-22 00:03 57.54180 -135.33716 14881 ft 385 kts
2026-04-22 00:04 57.56725 -135.32348 14319 ft 374 kts
2026-04-22 00:04 57.59192 -135.31019 13721 ft 365 kts
2026-04-22 00:04 57.61603 -135.29725 13040 ft 356 kts
2026-04-22 00:04 57.63971 -135.28456 12429 ft 353 kts
2026-04-22 00:05 57.66321 -135.27198 11808 ft 350 kts 10°
2026-04-22 00:05 57.68684 -135.25936 11181 ft 359 kts 10°
2026-04-22 00:05 57.71081 -135.24652 11032 ft 354 kts 11°
2026-04-22 00:05 57.73391 -135.23395 10860 ft 336 kts 11°
2026-04-22 00:06 57.75570 -135.22203 10713 ft 318 kts 11°
2026-04-22 00:06 57.77640 -135.21075 10585 ft 302 kts 10°
2026-04-22 00:06 57.79608 -135.20005 10455 ft 288 kts 10°
2026-04-22 00:06 57.81459 -135.19001 10377 ft 276 kts 10°
2026-04-22 00:07 57.83302 -135.18008 10255 ft 273 kts 10°
2026-04-22 00:07 57.85128 -135.17027 10124 ft 272 kts 11°
2026-04-22 00:07 57.86942 -135.16048 9979 ft 269 kts 10°
2026-04-22 00:07 57.88732 -135.15076 9677 ft 266 kts 11°
2026-04-22 00:08 57.90503 -135.14111 9375 ft 264 kts 11°
2026-04-22 00:08 57.92251 -135.13159 9093 ft 260 kts 11°
2026-04-22 00:08 57.93981 -135.12214 8825 ft 257 kts 11°
2026-04-22 00:08 57.95696 -135.11279 8546 ft 255 kts 11°
2026-04-22 00:09 57.97391 -135.10354 8248 ft 253 kts 12°
2026-04-22 00:09 57.99063 -135.09441 7991 ft 248 kts 12°
2026-04-22 00:09 58.00708 -135.08541 7760 ft 248 kts 12°
2026-04-22 00:09 58.02387 -135.07622 7511 ft 256 kts 12°
2026-04-22 00:10 58.04121 -135.06672 7241 ft 262 kts 12°
2026-04-22 00:10 58.05862 -135.05714 6993 ft 258 kts 13°
2026-04-22 00:10 58.07576 -135.04776 6853 ft 257 kts 13°
2026-04-22 00:10 58.09301 -135.03836 6727 ft 259 kts 12°
2026-04-22 00:11 58.11038 -135.02888 6587 ft 260 kts 12°
2026-04-22 00:11 58.12781 -135.01937 6433 ft 262 kts 13°
2026-04-22 00:11 58.14545 -135.00973 6285 ft 265 kts 13°
2026-04-22 00:11 58.16322 -135.00000 6138 ft 267 kts 13°
2026-04-22 00:12 58.18104 -134.99023 5986 ft 270 kts 13°
2026-04-22 00:12 58.19929 -134.98007 5634 ft 272 kts 14°
2026-04-22 00:12 58.21737 -134.96991 5333 ft 270 kts 14°
2026-04-22 00:12 58.23511 -134.95993 5034 ft 269 kts 14°
2026-04-22 00:13 58.25289 -134.94990 4815 ft 262 kts 14°
2026-04-22 00:13 58.27014 -134.94018 4487 ft 254 kts 14°
2026-04-22 00:13 58.28674 -134.93082 4235 ft 243 kts 13°
2026-04-22 00:13 58.30256 -134.92189 4014 ft 232 kts 13°
2026-04-22 00:14 58.31761 -134.91338 3797 ft 220 kts 13°
2026-04-22 00:14 58.33138 -134.90557 3655 ft 197 kts 13°
2026-04-22 00:14 58.34373 -134.89854 3530 ft 174 kts 12°
2026-04-22 00:14 58.35428 -134.89113 3454 ft 158 kts 32°
2026-04-22 00:15 58.35975 -134.87379 3348 ft 158 kts 82°
2026-04-22 00:15 58.36028 -134.85270 3106 ft 160 kts 92°
2026-04-22 00:15 58.36019 -134.83167 2847 ft 157 kts 92°
2026-04-22 00:15 58.36007 -134.81114 2613 ft 154 kts 92°
2026-04-22 00:16 58.35992 -134.79076 2372 ft 154 kts 92°
2026-04-22 00:16 58.35979 -134.77044 2146 ft 153 kts 92°
2026-04-22 00:16 58.35964 -134.74998 1921 ft 156 kts 93°
2026-04-22 00:16 58.35951 -134.72944 1676 ft 156 kts 92°
2026-04-22 00:17 58.35941 -134.70835 1450 ft 160 kts 92°
2026-04-22 00:17 58.35919 -134.68735 1146 ft 161 kts 93°
2026-04-22 00:17 58.35890 -134.66622 964 ft 153 kts 92°
2026-04-22 00:17 58.35898 -134.64634 707 ft 149 kts 88°
2026-04-22 00:18 58.35954 -134.62727 494 ft 138 kts 87°
2026-04-22 00:18 58.35948 -134.60886 292 ft 137 kts 105°
2026-04-22 00:18 58.35717 -134.59230 64 ft 121 kts 100°
2026-04-22 00:18 58.35525 -134.57833 34 ft 92 kts 105°
2026-04-22 00:19 58.35413 -134.57026 34 ft 34 kts 105°
2026-04-22 00:19 58.35380 -134.56743 33 ft 14 kts 82°
2026-04-22 00:19 58.35454 -134.56678 33 ft 13 kts 339°
2026-04-22 00:19 58.35501 -134.56870 33 ft 20 kts 284°
2026-04-22 00:20 58.35540 -134.57142 33 ft 22 kts 285°
2026-04-22 00:20 58.35578 -134.57425 34 ft 22 kts 284°
2026-04-22 00:20 58.35618 -134.57717 32 ft 23 kts 284°
2026-04-22 00:20 58.35659 -134.58016 33 ft 21 kts 284°
2026-04-22 00:21 58.35697 -134.58272 33 ft 10 kts 286°
2026-04-22 00:21 58.35715 -134.58305 33 ft 0 kts 338°
2026-04-22 00:22 58.35754 -134.58313 33 ft 1 kts 334°
2026-04-22 00:22 58.35776 -134.58386 33 ft 4 kts 301°
2026-04-22 00:22 58.35807 -134.58388 33 ft 8 kts 17°
2026-04-22 00:22 58.35832 -134.58370 32 ft 0 kts 22°
2026-04-22 00:23 58.35833 -134.58369 32 ft 0 kts 22°